[[[{"header":{"parameterUnit":"kt","parameterCategory":2,"dx":1,"dy":1,"la1":30.253999710083008,"la2":30.299108505249023,"lo1":-89.0895004272461,"lo2":-89.04439544677734,"nx":28,"ny":28,"refTime":"2022-09-29T21:00:00:Z","depth":0,"parameterNumber":1,"parameterNumberName":"U-component_of_WINDS"},"data":[1.1721,1.1784,1.1799,1.188,1.1907,1.1965,1.1991,1.2027,1.206,1.2134,1.218,1.2204,1.2245,1.2305,1.2357,1.2367,1.2389,1.2401,1.2411,1.2341,1.2332,1.2324,1.2309,1.2405,1.2405,1.2482,1.2482,1.2483,1.1671,1.1698,1.1744,1.1799,1.184,1.1837,1.1882,1.1917,1.197,1.2011,1.2056,1.2123,1.2179,1.2217,1.2274,1.2307,1.2311,1.2322,1.232,1.2327,1.2252,1.2236,1.2319,1.2319,1.2319,1.2319,1.2319,1.2318,1.1584,1.1621,1.1662,1.1713,1.1745,1.1782,1.1822,1.1848,1.1895,1.1954,1.1963,1.2025,1.207,1.2147,1.2177,1.2227,1.2218,1.2236,1.2241,1.2245,1.2248,1.2138,1.2238,1.2237,1.2237,1.2237,1.2237,0,1.1525,1.1535,1.1579,1.1629,1.1667,1.1707,1.1747,1.1772,1.1799,1.1837,1.1893,1.1929,1.2001,1.2058,1.2115,1.2143,1.2146,1.2148,1.2161,1.2157,1.2147,1.2154,1.2033,1.2145,1.2144,1.2143,1.2143,1.2143,1.144,1.1481,1.1531,1.156,1.1585,1.1633,1.1665,1.1685,1.1719,1.1772,1.1805,1.1862,1.1907,1.1998,1.2031,1.2086,1.2088,1.2129,1.2096,1.2091,1.209,1.2088,1.2093,1.2135,1.2136,1.2137,1.2138,0,1.1391,1.1413,1.1482,1.1527,1.154,1.1583,1.1623,1.1662,1.1683,1.174,1.1755,1.1789,1.1846,1.1871,1.1941,1.1954,1.2031,1.2031,1.2015,1.2017,1.2058,1.2054,1.2182,1.2201,1.21,1.2101,1.2101,0,1.1328,1.1381,1.1411,1.145,1.1511,1.1528,1.1589,1.1612,1.1649,1.1694,1.17,1.1743,1.1769,1.1816,1.1834,1.1901,1.1914,1.1928,1.1932,1.1928,1.1926,1.1947,1.1943,1.1938,1.1937,1.1937,1.1936,0,1.1249,1.1327,1.1389,1.1411,1.1464,1.1494,1.1518,1.1558,1.159,1.1635,1.1656,1.1708,1.1737,1.1778,1.18,1.1777,1.1882,1.1854,1.1896,1.1896,1.1918,1.1916,1.2023,1.1935,1.1935,1.1935,1.1935,0,1.1201,1.1242,1.1329,1.1373,1.1393,1.1435,1.1485,1.1526,1.1569,1.1582,1.1618,1.1625,1.1684,1.1655,1.1738,1.1701,1.173,1.1748,1.1752,1.1759,1.1726,1.1784,1.1882,1.1894,1.1766,1.1765,1.1763,0,1.1105,1.1197,1.1212,1.1294,1.134,1.1342,1.1389,1.1426,1.1447,1.1491,1.1514,1.1565,1.1548,1.1568,1.1605,1.1632,1.168,1.1627,1.1694,1.1696,1.1683,1.1773,1.1781,1.1857,1.1746,1.1747,1.1749,0,1.1034,1.1095,1.1108,1.1134,1.1183,1.1221,1.1275,1.1327,1.1355,1.1395,1.1442,1.1513,1.1504,1.1535,1.1546,1.1584,1.1648,1.1569,1.1571,1.1584,1.1738,1.1746,1.1759,1.1648,1.165,1.1652,1.1735,0,1.0958,1.1006,1.1043,1.1097,1.1129,1.1181,1.1204,1.1237,1.1243,1.1263,1.1331,1.1368,1.1423,1.1443,1.1449,1.1526,1.1518,1.1507,1.1481,1.154,1.1568,1.1579,1.1437,1.1437,1.1436,1.1436,0,0,1.0862,1.093,1.0943,1.0994,1.1023,1.1023,1.1076,1.1105,1.1162,1.1183,1.1168,1.1273,1.1303,1.1384,1.1404,1.1426,1.1443,1.142,1.1511,1.152,1.1527,1.1557,1.1568,1.1435,1.1435,1.1435,1.1434,0,1.0839,1.0865,1.0916,1.0946,1.0989,1.1006,1.1019,1.1062,1.1078,1.1143,1.1144,1.1188,1.127,1.1303,1.133,1.1411,1.141,1.1426,1.1462,1.1505,1.1514,1.1522,1.1553,1.1563,1.1433,1.1433,1.1433,0,1.0773,1.0803,1.083,1.0892,1.0921,1.0968,1.0946,1.0995,1.1031,1.103,1.1095,1.1119,1.1164,1.1236,1.127,1.1258,1.1379,1.1344,1.1348,1.1353,1.1396,1.1407,1.1416,1.129,1.129,1.1289,0,0,1.075,1.0793,1.0832,1.0889,1.0907,1.0933,1.096,1.0968,1.1006,1.1022,1.1051,1.109,1.1139,1.117,1.1216,1.1292,1.1304,1.1326,1.1332,1.1338,1.1345,1.139,1.14,1.1287,1.1287,1.1287,0,0,1.0739,1.0785,1.0783,1.0851,1.0887,1.093,1.0965,1.0964,1.1007,1.1004,1.1022,1.1033,1.1101,1.1124,1.1091,1.1208,1.1182,1.119,1.119,1.1199,1.1206,1.1199,1.1074,0,0,0,0,0,1.0726,1.0779,1.0777,1.0791,1.087,1.0931,1.0941,1.0956,1.0937,1.0965,1.099,1.0985,1.111,1.1081,1.1096,1.1133,1.1258,1.1263,1.1268,1.1286,1.1295,1.1302,0,0,0,0,0,0,1.0732,1.0749,1.0775,1.082,1.0838,1.0929,1.09,1.0906,1.0934,1.0932,1.0981,1.0987,1.1002,1.1074,1.1088,1.1122,1.1069,1.126,1.1264,1.1268,1.1289,1.1296,1.1302,0,0,0,0,0,1.0736,1.0751,1.0873,1.0819,1.0835,1.0866,1.0898,1.0903,1.0925,1.0963,1.0969,1.0933,1.1002,1.1015,1.1082,1.1116,1.106,1.1065,1.1262,1.1266,1.1269,1.1292,0,0,0,0,0,0,1.074,1.0756,1.0877,1.0882,1.0799,1.0862,1.0872,1.09,1.0954,1.0961,1.0916,1.0914,1.1003,1.1013,1.1023,1.1113,1.1052,1.1057,1.1061,1.1265,1.1268,1.127,0,0,0,0,0,0,1.0749,1.0761,1.0879,1.0853,1.0856,1.0857,1.0866,1.0925,1.0955,1.0905,1.0905,1.0915,1.0989,1.1012,1.1019,1.1111,1.1046,1.1051,1.1055,1.1057,1.1267,1.127,0,0,0,0,0,0,1.0754,1.0764,1.0852,1.0854,1.0856,1.0918,1.091,1.0991,1.0931,1.0902,1.0926,1.0924,1.0988,1.0996,1.1017,1.1106,1.111,1.1047,1.105,1.1052,1.1054,0,0,0,0,0,0,0,1.0758,1.0684,1.0844,1.0855,1.0856,1.0932,1.0933,1.0935,1.093,1.0928,1.0926,1.0925,1.1018,1.1024,1.1029,1.1101,0,0,1.1046,1.1048,0,0,0,0,0,0,0,0,1.068,1.0683,1.0845,1.0846,1.0847,1.0932,1.0933,1.0934,1.093,1.0928,1.0927,1.0925,1.102,1.1024,1.1028,0,0,0,0,0,0,0,0,0,0,0,0,0,0,0,1.0845,1.0846,0,1.0932,1.0933,1.0934,1.093,1.0928,1.0927,1.0926,1.1021,1.1024,1.1028,0,0,0,0,0,0,0,0,0,0,0,0,0,0,0,0,0,0,0,0,0,0,0,0,0,0,0,0,0,0,0,0,0,0,0,0,0,0,0,0,0,0,0,0,0,0,0,0,0,0,0,0,0,0,0,0,0,0,0,0,0,0,0,0,0,0,0,0,0]}],[{"header":{"parameterUnit":"kt","parameterCategory":2,"dx":1,"dy":1,"la1":30.253999710083008,"la2":30.299108505249023,"lo1":-89.0895004272461,"lo2":-89.04439544677734,"nx":28,"ny":28,"refTime":"2022-09-29T21:00:00:Z","depth":0,"parameterNumber":2,"parameterNumberName":"V-component_of_WINDS"},"data":[-10.4868,-10.4937,-10.495,-10.5034,-10.5059,-10.5118,-10.5142,-10.5174,-10.5202,-10.5271,-10.5313,-10.5329,-10.5358,-10.5408,-10.5451,-10.5457,-10.5474,-10.5493,-10.5496,-10.5407,-10.5395,-10.5384,-10.537,-10.5496,-10.5497,-10.5587,-10.5587,-10.5588,-10.4808,-10.4834,-10.4882,-10.4935,-10.4976,-10.4967,-10.5007,-10.5041,-10.5092,-10.5126,-10.5167,-10.5227,-10.5275,-10.5297,-10.5344,-10.5375,-10.5371,-10.5387,-10.5384,-10.5389,-10.5295,-10.528,-10.5389,-10.5389,-10.5389,-10.5389,-10.5389,-10.5389,-10.4702,-10.4743,-10.4782,-10.4833,-10.4862,-10.4897,-10.4937,-10.4956,-10.5,-10.5052,-10.5054,-10.511,-10.5143,-10.5202,-10.5223,-10.5266,-10.525,-10.5269,-10.5274,-10.5278,-10.5284,-10.5157,-10.5274,-10.5274,-10.5273,-10.5273,-10.5273,0,-10.4628,-10.4635,-10.468,-10.4729,-10.4766,-10.4804,-10.4839,-10.4864,-10.4877,-10.4912,-10.4964,-10.4994,-10.5054,-10.5102,-10.5146,-10.5163,-10.5152,-10.5151,-10.5164,-10.5166,-10.5163,-10.5167,-10.5014,-10.5147,-10.5146,-10.5145,-10.5145,-10.5144,-10.4523,-10.4567,-10.4611,-10.4642,-10.4663,-10.4711,-10.474,-10.4748,-10.4779,-10.4822,-10.4855,-10.4904,-10.4942,-10.502,-10.5036,-10.5079,-10.5074,-10.5125,-10.508,-10.5081,-10.5076,-10.5074,-10.5079,-10.5133,-10.5134,-10.5136,-10.5136,0,-10.4463,-10.4479,-10.455,-10.4588,-10.4598,-10.4644,-10.4675,-10.4713,-10.4725,-10.478,-10.4793,-10.481,-10.4859,-10.4867,-10.4922,-10.4925,-10.4999,-10.4993,-10.499,-10.4989,-10.5036,-10.5032,-10.5184,-10.5205,-10.5073,-10.5074,-10.5075,0,-10.4379,-10.4436,-10.4457,-10.4497,-10.4561,-10.4566,-10.4629,-10.4645,-10.4673,-10.4716,-10.4706,-10.4746,-10.4749,-10.479,-10.4794,-10.4856,-10.4865,-10.4871,-10.4871,-10.4872,-10.4872,-10.4887,-10.4881,-10.4868,-10.4867,-10.4867,-10.4866,0,-10.4284,-10.436,-10.4425,-10.4445,-10.4487,-10.4518,-10.4536,-10.4566,-10.4594,-10.463,-10.4648,-10.4689,-10.4712,-10.4744,-10.4748,-10.4718,-10.4823,-10.4782,-10.4829,-10.4829,-10.4851,-10.4849,-10.4983,-10.4865,-10.4865,-10.4864,-10.4864,0,-10.4218,-10.4258,-10.4349,-10.4385,-10.4404,-10.4446,-10.4488,-10.4526,-10.4558,-10.4563,-10.4591,-10.4584,-10.4638,-10.4597,-10.4671,-10.4631,-10.4653,-10.4663,-10.4667,-10.4671,-10.4626,-10.4701,-10.4827,-10.4841,-10.4677,-10.4676,-10.4674,0,-10.4107,-10.4202,-10.4207,-10.4293,-10.4338,-10.4325,-10.4371,-10.4399,-10.441,-10.4449,-10.446,-10.4502,-10.4473,-10.4487,-10.4523,-10.4535,-10.4587,-10.4528,-10.4582,-10.4584,-10.4576,-10.4692,-10.4709,-10.4799,-10.4655,-10.4657,-10.4658,0,-10.4021,-10.4072,-10.4086,-10.4109,-10.4147,-10.4183,-10.4235,-10.4279,-10.4305,-10.4335,-10.4379,-10.4437,-10.4419,-10.4441,-10.4438,-10.4474,-10.4552,-10.4448,-10.4449,-10.4468,-10.4644,-10.4661,-10.4676,-10.4542,-10.4544,-10.4546,-10.4642,0,-10.3921,-10.3969,-10.4009,-10.4055,-10.4084,-10.4136,-10.4145,-10.4174,-10.417,-10.4179,-10.4242,-10.4263,-10.4304,-10.4322,-10.4316,-10.4397,-10.4384,-10.4362,-10.4322,-10.4397,-10.4429,-10.4442,-10.4274,-10.4273,-10.4272,-10.4271,0,0,-10.3811,-10.3879,-10.388,-10.3931,-10.3955,-10.3939,-10.3994,-10.4015,-10.4057,-10.4074,-10.4052,-10.4137,-10.4154,-10.4228,-10.4253,-10.4268,-10.4283,-10.4255,-10.4361,-10.4371,-10.438,-10.4414,-10.4428,-10.427,-10.4269,-10.4269,-10.4269,0,-10.3776,-10.3797,-10.3852,-10.3875,-10.3908,-10.3915,-10.3928,-10.3957,-10.3965,-10.4025,-10.4008,-10.4046,-10.4111,-10.4132,-10.4151,-10.4247,-10.4231,-10.4259,-10.4309,-10.4351,-10.4362,-10.4372,-10.4408,-10.4421,-10.4266,-10.4266,-10.4266,0,-10.3694,-10.3717,-10.3743,-10.3797,-10.3818,-10.3862,-10.3824,-10.387,-10.3903,-10.3878,-10.3937,-10.3949,-10.3976,-10.4045,-10.4075,-10.4056,-10.4183,-10.4142,-10.4149,-10.4152,-10.4192,-10.4206,-10.4218,-10.4059,-10.4058,-10.4057,0,0,-10.3662,-10.3706,-10.3729,-10.379,-10.3804,-10.3814,-10.3837,-10.3835,-10.3861,-10.3871,-10.3886,-10.3911,-10.3949,-10.3973,-10.4009,-10.4082,-10.4088,-10.4117,-10.4126,-10.4134,-10.4142,-10.4184,-10.4198,-10.4055,-10.4054,-10.4054,0,0,-10.3646,-10.3677,-10.3668,-10.374,-10.3767,-10.3792,-10.3828,-10.3817,-10.3849,-10.3844,-10.3839,-10.3845,-10.3908,-10.3919,-10.3882,-10.3994,-10.3955,-10.3963,-10.3985,-10.3997,-10.4007,-10.4003,-10.3842,0,0,0,0,0,-10.3614,-10.3674,-10.3666,-10.3679,-10.3743,-10.3797,-10.3805,-10.3804,-10.3777,-10.3806,-10.3816,-10.3797,-10.3899,-10.3866,-10.3878,-10.3919,-10.4019,-10.4025,-10.4031,-10.4076,-10.4089,-10.41,0,0,0,0,0,0,-10.3619,-10.3635,-10.3664,-10.3692,-10.3706,-10.3795,-10.3749,-10.3751,-10.3774,-10.377,-10.3796,-10.3797,-10.3795,-10.386,-10.387,-10.3909,-10.3839,-10.4021,-10.4027,-10.4032,-10.408,-10.4091,-10.41,0,0,0,0,0,-10.3623,-10.3636,-10.374,-10.3691,-10.3704,-10.3716,-10.3747,-10.3748,-10.3765,-10.378,-10.3781,-10.3762,-10.3797,-10.3805,-10.3866,-10.3905,-10.3831,-10.3835,-10.4025,-10.4029,-10.4033,-10.4086,0,0,0,0,0,0,-10.3626,-10.3636,-10.3743,-10.3746,-10.3668,-10.3711,-10.3718,-10.3745,-10.3774,-10.3776,-10.3746,-10.3743,-10.3798,-10.3805,-10.3811,-10.3903,-10.3825,-10.3829,-10.3832,-10.4028,-10.4031,-10.4034,0,0,0,0,0,0,-10.3629,-10.3639,-10.3745,-10.3715,-10.3716,-10.3707,-10.3713,-10.3763,-10.3775,-10.3738,-10.3736,-10.3744,-10.3787,-10.3805,-10.381,-10.3887,-10.3821,-10.3825,-10.3827,-10.3829,-10.4031,-10.4033,0,0,0,0,0,0,-10.3633,-10.3642,-10.3714,-10.3715,-10.3715,-10.3756,-10.375,-10.3816,-10.3752,-10.3737,-10.3746,-10.3744,-10.3787,-10.3792,-10.3809,-10.3884,-10.3886,-10.3821,-10.3823,-10.3825,-10.3827,0,0,0,0,0,0,0,-10.3637,-10.3579,-10.3721,-10.3714,-10.3714,-10.3781,-10.3782,-10.3783,-10.3752,-10.3749,-10.3747,-10.3745,-10.3798,-10.3803,-10.3807,-10.3882,0,0,-10.382,-10.3822,0,0,0,0,0,0,0,0,-10.3575,-10.3578,-10.3721,-10.3722,-10.3723,-10.3781,-10.3782,-10.3783,-10.3751,-10.3749,-10.3747,-10.3746,-10.38,-10.3803,-10.3807,0,0,0,0,0,0,0,0,0,0,0,0,0,0,0,-10.3721,-10.3722,0,-10.3781,-10.3782,-10.3783,-10.3751,-10.3749,-10.3748,-10.3746,-10.3801,-10.3803,-10.3806,0,0,0,0,0,0,0,0,0,0,0,0,0,0,0,0,0,0,0,0,0,0,0,0,0,0,0,0,0,0,0,0,0,0,0,0,0,0,0,0,0,0,0,0,0,0,0,0,0,0,0,0,0,0,0,0,0,0,0,0,0,0,0,0,0,0,0,0,0]}]]]